Preview of NWS' New Version of Forecast
This preview is not operational and should not be used for support decisions.

Regional Weather Roundup (RWR)

Issued by National Weather Service (NWS)

                            
000
ASUS43 KDTX 170810
RWRMI 
MICHIGAN HOURLY REGIONAL WEATHER ROUNDUP
NATIONAL WEATHER SERVICE DETROIT/PONTIAC MI
400 AM EDT MON JUN 17 2019

NOTE: "FAIR" INDICATES FEW OR NO CLOUDS BELOW 12,000 FEET WITH NO
SIGNIFICANT WEATHER AND/OR OBSTRUCTION TO VISIBILITY.

MIZ047>049-052>055-059>063-066>070-074>076-081>083-170900-
SOUTHEAST LOWER MICHIGAN
  
CITY           SKY/WX    TMP DP  RH WIND       PRES   REMARKS
ADRIAN         CLOUDY    60  55  83 E5        29.94S                  
ALMA           CLOUDY    55  50  84 NE7       29.98S                  
ANN ARBOR      CLOUDY    59  57  93 NE5       29.93F FOG              
BAD AXE        CLOUDY    54  48  82 N6        29.99S                  
CARO           CLOUDY    55  51  88 CALM      29.97F                  
DETROIT CITY   CLOUDY    58  50  75 N3        29.95S                  
DETROIT        CLOUDY    59  51  75 NE5       29.95F                  
FLINT          CLOUDY    59  46  62 NE7       29.97S                  
GROSSE ILE     CLOUDY    58  55  92 NE3       29.93F                  
HILLSDALE      CLOUDY    58  56  95 E6        29.93F                  
HOWELL         CLOUDY    58  55  89 CALM      29.95S                  

CITY           SKY/WX    TMP DP  RH WIND       PRES   REMARKS
JACKSON        CLOUDY    60  59  96 CALM      29.94S                  
LAMBERTVILLE   CLOUDY    60  56  87 CALM      29.93S                  
LANSING        CLOUDY    57  55  93 NE6       29.95F                  
LAPEER         CLOUDY    57  49  74 N3        29.97F                  
MASON          CLOUDY    58  57  96 CALM      29.95S FOG              
MONROE         CLOUDY    60  59  97 CALM      29.93F                  
MT. CLEMENS    CLOUDY    56  54  94 N3        29.94S                  
PONTIAC        CLOUDY    57  51  80 NE3       29.94F                  
PORT HOPE        N/A     53  48  83 VRB3      29.98R                  
PORT HURON     CLOUDY    55  48  76 CALM      29.97R                  
MIDLAND        CLOUDY    54  50  88 CALM      29.99S                  
TROY           CLOUDY    58  48  68 NE8       29.97F                  
SAGINAW HB     CLOUDY    57  54  88 N7        29.98F                  
$$
MIZ043>046-050>051-056>058-064>065-071>073-077>080-170900-
SOUTHWEST LOWER MICHIGAN
  
CITY           SKY/WX    TMP DP  RH WIND       PRES   REMARKS
BATTLE CREEK   FOG       60  60 100 NE5       29.93S VSB 1            
BENTON HARBOR  CLOUDY    61  58  90 CALM      29.91S FOG              
BIG RAPIDS     CLOUDY    56  49  78 E10       29.98S                  
COLDWATER      CLOUDY    60  60 100 SE5       29.93S FOG              
FREMONT        CLOUDY    56  48  73 E9        29.97R                  
HOLLAND        CLOUDY    59  54  83 E6        29.94S                  
GRAND RAPIDS   CLOUDY    57  50  77 E9        29.95S                  
IONIA          CLOUDY    55  49  80 NE9       29.95S                  
KALAMAZOO      FOG       60  58  92 CALM      29.93R VSB 1/2          
LUDINGTON      FAIR      51  50  97 CALM      29.97F                  
MARSHALL       CLOUDY    61  61 100 E5        29.93S FOG              
MOUNT PLEASANT CLOUDY    55  50  85 E5        29.98S                  
MUSKEGON       CLOUDY    58  48  69 NE7       29.96R                  
SOUTH HAVEN    CLOUDY    59  58  96 NE3       29.93R FOG              
$$
MIZ016>042-170900-
NORTHERN LOWER MICHIGAN
  
CITY           SKY/WX    TMP DP  RH WIND       PRES   REMARKS
ALPENA         FAIR      45  42  89 CALM      30.00S                  
BEAVER ISLAND  FAIR      43  43  99 CALM      30.00S FOG              
BELLAIRE       FAIR      47  46  95 CALM      30.00S                  
CADILLAC       FAIR      46  45  95 CALM      29.98S                  
CHARLEVOIX     FAIR      47  46  95 CALM      30.02S                  
FRANKFORT        N/A     47  44  89 CALM      29.99F FOG              
GAYLORD        FAIR      45  42  89 CALM      29.99S                  
GRAYLING       FOG       41  41 100 CALM      29.99F VSB 1            
HARBOR SPRINGS FAIR      47  46  96 CALM      29.99F                  
HOUGHTON LAKE  FOG       50  48  93 CALM      29.99F VSB 3/4          
MANISTEE       CLOUDY    46  45  93 E3        29.99S FOG              
OSCODA         CLOUDY    46  46 100 CALM      29.98F                  
PELLSTON       FAIR      43  42  97 CALM      30.00F                  
ROGERS CITY    FAIR      44  43  96 CALM      30.00F                  
TRAVERSE CITY  FAIR      48  45  89 CALM      29.99S                  
$$
MIZ007>008-015-170900-
EASTERN UPPER MICHIGAN
  
CITY           SKY/WX    TMP DP  RH WIND       PRES   REMARKS
KINROSS        FAIR      46  43  89 NW3       30.01S                  
MACKINAC ISLAN FAIR      46  46  99 N5        30.00S                  
NEWBERRY       FAIR      45  42  91 CALM      30.01S                  
S. S. MARIE    FAIR      47  43  86 W3        30.00R                  
MUNISING         N/A     39  37  92 S3        30.01S                  
$$
MIZ004>006-011>014-085-170900-
CENTRAL UPPER MICHIGAN
  
CITY           SKY/WX    TMP DP  RH WIND       PRES   REMARKS
MANISTIQUE     FAIR      44  41  90 CALM      30.01R                  
ESCANABA       FAIR      43  42  97 CALM      30.02R                  
MENOMINEE      FAIR      47  46  97 N3        30.01F                  
SAWYER-GWINN   FAIR      39  37  93 CALM      30.01S                  
$$
MIZ001>003-009>011-084-170900-
WESTERN UPPER MICHIGAN
  
CITY           SKY/WX    TMP DP  RH WIND       PRES   REMARKS
IRON MOUNTAIN  FAIR      44  41  89 CALM      30.00S                  
HOUGHTON       FAIR      44  40  85 E6        30.00R                  
COPPER HARBOR    N/A     48  42  80 CALM      30.00S                  
IRONWOOD       FAIR      47  44  90 SE5       29.99S                  
$$

ABBREVIATIONS USED IN REMARKS
   TC - TEMPERATURE IN CELSIUS
  WCI - WIND CHILL INDEX
   HX - HEAT INDEX
  VSB - VISIBILITY